This demonstration page uses our WeatherBlox Daily Observations layout. Learn more.

Left ArrowRight Arrow

39.01783, -85.05884

Hourly Observations for March 27, 2015

Temp ( °F °C ) Dew Point ( °F °C ) Humidity (%) Winds ( mph kmh ) Pressure ( in mb ) Visibility ( mi km ) Precip ( " mm )
12:52 am 00:52 Mostly Cloudy 36 2.2 31 -0.6 82 82 Calm 29.98 1015 9 14 0.00 0.00
1:52 am 01:52 Mostly Cloudy 37 2.8 30 -1.1 76 76 N 9 15 29.97 1015 10 16 0.00 0.00
2:52 am 02:52 Partly Cloudy 36 2.2 27 -2.8 70 70 NNE 12 19 29.96 1015 10 16 0.00 0.00
3:52 am 03:52 Mostly Clear 34 1.1 24 -4.4 67 67 NNE 8 13 29.97 1015 10 16 0.00 0.00
4:52 am 04:52 Mostly Cloudy 33 0.6 24 -4.4 70 70 N 8 13 29.96 1014 10 16 0.00 0.00
5:52 am 05:52 Mostly Clear 32 0 23 -5 69 69 N 6 9 29.96 1015 10 16 0.00 0.00
6:52 am 06:52 Mostly Clear 33 0.6 23 -5 66 66 N 8 13 29.98 1015 10 16 0.00 0.00
7:52 am 07:52 Mostly Sunny 31 -0.6 24 -4.4 76 76 N 8 13 30.00 1016 10 16 0.00 0.00
8:52 am 08:52 Partly Cloudy 33 0.6 24 -4.4 70 70 N 9 15 29.99 1016 10 16 0.00 0.00
9:52 am 09:52 Partly Cloudy 35 1.7 23 -5 61 61 NNW 14 22 30.00 1016 10 16 0.00 0.00
10:52 am 10:52 Mostly Cloudy 37 2.8 24 -4.4 59 59 N 9 15 30.00 1016 10 16 0.00 0.00
11:52 am 11:52 Mostly Cloudy 35 1.7 23 -5 61 61 N 14 22 30.02 1017 10 16 0.00 0.00
12:52 pm 12:52 Cloudy 35 1.7 22 -5.6 59 59 NNW 15 24 30.02 1017 10 16 0.00 0.00
1:52 pm 13:52 Cloudy 34 1.1 23 -5 64 64 N 17 28 30.02 1017 10 16 0.00 0.00
2:45 pm 14:45 Windy with Snow Likely 34 1 21 -6 60 60 N 20 31 30.03 1017 8 13 0.00 0.03
2:52 pm 14:52 Cloudy with Light Snow 33 0.6 23 -5 66 66 NNW 16 26 30.03 1017 6 10 0.00 0.03
3:05 pm 15:05 Cloudy with Light Snow 34 1 25 -4 70 70 NW 15 24 30.03 1017 4 6 0.00 0.03
3:52 pm 15:52 Windy with Snow Likely 33 0.6 21 -6.1 61 61 NNW 21 33 30.02 1017 8 13 0.00 0.03
4:52 pm 16:52 Cloudy 34 1.1 16 -8.9 48 48 NW 17 28 30.02 1017 10 16 0.00 0.03
5:52 pm 17:52 Cloudy 33 0.6 16 -8.9 49 49 NNW 13 20 30.04 1017 10 16 0.00 0.00
6:52 pm 18:52 Cloudy 32 0 16 -8.9 52 52 NNW 13 20 30.05 1018 10 16 0.00 0.03
7:52 pm 19:52 Cloudy 30 -1.1 16 -8.9 56 56 NNW 13 20 30.07 1018 9 14 0.00 0.03
8:52 pm 20:52 Cloudy 30 -1.1 16 -8.9 56 56 NW 10 17 30.08 1019 10 16 0.00 0.00
9:52 pm 21:52 Cloudy with Light Snow 29 -1.7 17 -8.3 61 61 NNW 16 26 30.10 1019 10 16 0.00 0.03
10:52 pm 22:52 Cloudy 28 -2.2 18 -7.8 66 66 NW 8 13 30.11 1020 10 16 0.00 0.03
11:52 pm 23:52 Cloudy 28 -2.2 10 -12.2 47 47 NW 10 17 30.12 1020 10 16 0.00 0.00

Powered by AerisWeather